GSLV R/B

Satellite information

Favourite Embed

Satellite Type and Status

ROCKET BODYIN ORBIT

Key statistics

Satellite GSLV R/B at a glance.

Uptime

1102

Days in orbit

Revolutions

≈ 15.0

Per day

Orbit

LEO

Low Earth Orbit

Inclination

87.4

Latest

Satellite identification and parameters

Extended collection of information and parameters for GSLV R/B.

Object identification

Identified? True

Debris? False

Object name: GSLV R/B

International designator: 2022-138AN

Object number (NORAD): 54149

Object ID (CCSDS): 54149

Country: INDIA (IND)

Current information (Y/N): Y

RCS size: LARGE

Orbital parameters

Period: 96.273 minutes

Inclination: 87.3854 deg

SMA: 6958.195 km

Apoapsis: 593.309 km

Periapsis: 566.811 km

RAAN: 210.8337 deg

Eccentricy: 0.00190407

Argument of periapsis: 276.153 deg

Mean anomaly: 83.7531 deg

Mean motion: 14.95746035 rev/day

Mean motion (dot): 0.00004785 rev/day2

B* drag term: 0.00042564979 1/REarth

Two-line elements (TLE)

Creation date: Oct. 28, 2025, 2:18 a.m.

Reference frame: TEME

Reference center: EARTH

Epoch: Oct. 27, 2025, 8 p.m. UTC

TLE line 0: 0 GSLV R/B

TLE line 1: 1 54149U 22138AN 25300.83372639 .00004785 00000-0 42565-3 0 9999

TLE line 2: 2 54149 87.3854 210.8337 0019041 276.1530 83.7531 14.95746035164061

Live tracking on map

Real-time ground track for satellite GSLV R/B.

In-orbit conjunctions

A list of the most updated potential collisions computed for object GSLV R/B.

Target Orbit TCA Probability of collision Miss distance Type
NOAA 16 DEB SSO 2025-10-15 22:40:50 0.0002893203 375.0 (m) DEBRIS
COSMOS 2251 DEB LEO 2025-10-01 09:40:18 0.0001062615 67.0 (m) DEBRIS
IRIDIUM 33 DEB LEO 2025-04-15 14:00:18 0.0003284567 66.0 (m) DEBRIS

Associated space launch

A batch of 36 satellites for the OneWeb satellite constellation, which is intended to provide global Internet broadband service for individual consumers. The constellation is planned to have around 648 microsatellites (of which 60 are spares), around 150 kg each, operating in Ku-band from low Earth orbit.

GSLV R/B was lifted into orbit during the mission ‘LVM-3 | OneWeb 14’, on board a LVM-3 (GSLV Mk III) space rocket.

The launch took place on Oct. 22, 2022, 6:37 p.m. from Satish Dhawan Space Centre Second Launch Pad.

For more information about the launch, click the button.

Launch to space LVM-3 | OneWeb 14
LVM-3 | OneWeb 14

Agency: N/A

Status: Launch Successful

Launch date: Oct. 22, 2022, 6:37 p.m. UTC

Rocket: LVM-3 (GSLV Mk III)

Launch pad: Satish Dhawan Space Centre Second Launch Pad

Location: Satish Dhawan Space Centre, India

...

Latest news about this satellite

News about space launch
OneWeb resumes launches with first commercial GSLV Mk.III

OneWeb has resumed deployment of its satellite constellation with the launch of 36 satellites aboard India’s GSLV Mk.III rocket. The mission – which marks the first commercial launch for the GSLV – lifted off from the Satish Dhawan Space Centre at 12:07 A...

News about space launch
OneWeb set to resume launches on Indian rocket

After the suspension of commercial launches on Russia’s Soyuz rocket earlier this year, OneWeb is set to resume deploying satellites for its global internet network Saturday with an Indian GSLV Mk.3 launcher, one of five OneWeb missions planned before mid...

News about space launch
OneWeb launch sign of greater role for India in commercial launch market

The launch of a set of OneWeb satellites on an Indian rocket could be the harbinger of a greater role India will play in a commercial launch industry straining to satisfy demand.


Newsletter sign-up

Weekly statistics, charts and insights to help you stay on top of the space industry.